Regional Weather Roundup
Issued by NWS Green Bay, WI

Home | Current Version | Previous Version | Graphics & Text | Print | Product List | Glossary Off
Versions: 1 2 3 4 5 6 7 8 9 10 11 12 13 14 15 16 17 18 19 20 21 22 23 24 25 26 27 28 29 30 31 32 33 34 35 36 37 38 39 40 41 42 43 44 45 46 47 48 49 50

000
ASUS43 KGRB 300400
RWRGRB

NORTH-CENTRAL AND NORTHEAST WISCONSIN REGIONAL WEATHER ROUNDUP
NATIONAL WEATHER SERVICE GREEN BAY WI
1100 PM CDT WED MAR 29 2017

WIZ005-009-010>012-018-019-300500-
NORTH CENTRAL WISCONSIN

CITY           SKY/WX    TMP DP  RH WIND       PRES   REMARKS
IRONWOOD       PTCLDY    38  29  70 E5        30.17F
MANITOWISH WTR NOT AVBL
ARBOR VITAE    NOT AVBL
EAGLE RIVER    NOT AVBL
LAND O LAKES   NOT AVBL
RHINELANDER    CLOUDY    39  27  62 SE10      30.17F
PHILLIPS       CLOUDY    39  30  68 SE5       30.14F
ANTIGO         NOT AVBL
TOMAHAWK       NOT AVBL
MERRILL        NOT AVBL
$$

WIZ013-073-300500-
NORTHEAST WISCONSIN

CITY           SKY/WX    TMP DP  RH WIND       PRES   REMARKS
IRON MOUNTAIN  CLOUDY    36  24  62 NE3       30.21F
MARINETTE      CLOUDY    35  27  72 CALM      30.25F
$$

WIZ017-030-035>037-045-300500-
CENTRAL WISCONSIN

CITY           SKY/WX    TMP DP  RH WIND       PRES   REMARKS
MEDFORD        NOT AVBL
WAUSAU         CLOUDY    34  31  88 E13       30.16F
MOSINEE        NOT AVBL
MARSHFIELD     LGT RAIN  35  33  92 E14       30.14F
WISC RAPIDS    LGT RAIN  35  35 100 E12       30.17F
STEVENS POINT  NOT AVBL
WAUPACA        NOT AVBL
SHAWANO        LGT RAIN  36  32  84 NE7       30.22F
CLINTONVILLE   FLURRIES  32  32 100 NE5       30.20F
WAUTOMA        CLOUDY    36  31  82 NE12      30.16F
$$

WIZ038-039-048-051-300500-
FOX VALLEY

CITY           SKY/WX    TMP DP  RH WIND       PRES   REMARKS
NWS GREEN BAY  CLOUDY    37  32  82 NE10      30.20F
APPLETON       LGT SNOW N/A N/A N/A NE12      30.17F
OSHKOSH        CLOUDY    37  31  78 E9        30.15F
FOND DU LAC    CLOUDY    38  29  70 NE14      30.15F
$$

WIZ022-050-052-300500-
EAST CENTRAL WISCONSIN

CITY           SKY/WX    TMP DP  RH WIND       PRES   REMARKS
EPHRAIM        NOT AVBL
WASHINGTON ISL NOT AVBL
STURGEON BAY   LGT RAIN  36  32  85 NE3       30.20F
MANITOWOC      NOT AVBL
SHEBOYGAN      CLOUDY    37  32  82 NE16      30.17F
$$

LMZ563-521-522-541>543-300500-
LAKESHORE

STATION/POSITION TIME  TEMP    WIND        PRES    VSBY  WAVE
                       AIR SEA DIR/SP/G                  HT/PER
                 (UTC) (F)     (DEG/KT/KT) (MB)    (MI)  (FT/S)
SHEBOYGAN LKSHOR 0300   37     360/ 14/ 15 1022.9R
KEWAUNEE LKSHORE 0330   37      30/ 14/ 17 1022.6S
NORTHPORT PIER   0340   36      70/  8/ 10 1023.7F
SISTER BAY LKSHO 0306   37      80/  7/ 11   N/A
CHAMBERS ISLAND  0340   33      10/  6/  8 1023.4F
MENOMINEE LKSHOR 0330   34     360/  9/ 10 1023.2F
$$




USA.gov is the U.S. government's official web portal to all federal, state and local government web resources and services.